Weather History for York, PA

Change the Weather History Date:

Monday, December 24, 2012

  Actual Average Record
Temperature  
Mean Temperature 28 °F -  
Max Temperature 37 °F 0 °F 57 °F (2005)
Min Temperature 19 °F - 5 °F (2000)
Degree Days  
Heating Degree Days 37    
Moisture  
Dew Point 26 °F    
Average Humidity 88    
Maximum Humidity 100    
Minimum Humidity 57    
Precipitation  
Precipitation 0.26 in - - ()
Sea Level Pressure  
Sea Level Pressure 29.97 in    
Wind  
Wind Speed 2 mph (ESE)    
Max Wind Speed 8 mph    
Max Gust Speed -    
Visibility 4 miles    
Events Fog , Snow    
Averages and records for this station are not official NWS values.
T = Trace of Precipitation, MM = Missing Value Source: NWS Daily Summary

Daily Weather History Graph

Daily Weather History Graph

Search for Another Location

Airport:

Trip Planner

Search our weather history database for the weather conditions in past years. The results will help you decide how hot, cold, wet, or windy it might be!

Date:

Astronomy

Dec. 24, 2012 Rise Set
Actual Time 7:27 AM EST 4:47 PM EST
Civil Twilight 6:56 AM EST 5:18 PM EST
Nautical Twilight 6:22 AM EST 5:52 PM EST
Astronomical Twilight 5:49 AM EST 6:25 PM EST
Moon 2:13 PM EST (12/24) 4:03 AM EST (12/24)
Length of Visible Light 10h 21m
Length of Day
9h 20m
Waxing Gibbous, 88% of the Moon is Illuminated
Dec 24
Waxing Gibbous
Dec 28
Full
Jan 4
Last Quarter
Jan 11
New
Jan 18
First Quarter

Hourly Weather History & Observations

Time (EST) Temp. Windchill Dew Point Humidity Pressure Visibility Wind Dir Wind Speed Gust Speed Precip Events Conditions
12:53 AM 23.0 °F - 19.0 °F 85% 30.01 in 10.0 mi Calm Calm - N/A   Clear
1:53 AM 21.9 °F - 19.0 °F 89% 30.02 in 10.0 mi Calm Calm - N/A   Clear
2:53 AM 23.0 °F - 19.0 °F 85% 30.04 in 10.0 mi Calm Calm - N/A   Clear
3:53 AM 23.0 °F - 19.0 °F 85% 30.04 in 10.0 mi Calm Calm - N/A   Clear
4:53 AM 21.9 °F - 19.0 °F 89% 30.05 in 9.0 mi Calm Calm - N/A   Clear
5:53 AM 19.9 °F - 18.0 °F 92% 30.06 in 9.0 mi Calm Calm - N/A   Clear
6:53 AM 19.9 °F - 18.0 °F 92% 30.08 in 10.0 mi Calm Calm - N/A   Clear
7:53 AM 21.9 °F - 19.0 °F 89% 30.08 in 9.0 mi Calm Calm - N/A   Clear
8:53 AM 27.0 °F - 23.0 °F 85% 30.07 in 9.0 mi Calm Calm - N/A   Clear
9:53 AM 30.9 °F - 24.1 °F 76% 30.08 in 10.0 mi Calm Calm - N/A   Clear
10:53 AM 34.0 °F 29.8 °F 25.0 °F 70% 30.09 in 10.0 mi SE 4.6 mph - N/A   Clear
11:53 AM 36.0 °F 31.1 °F 24.1 °F 62% 30.06 in 10.0 mi SSE 5.8 mph - N/A   Clear
12:53 PM 36.0 °F 31.1 °F 21.9 °F 57% 30.03 in 10.0 mi ESE 5.8 mph - N/A   Clear
1:53 PM 37.0 °F 31.6 °F 23.0 °F 57% 30.03 in 10.0 mi SE 6.9 mph - N/A   Overcast
2:53 PM 36.0 °F 29.6 °F 23.0 °F 59% 30.01 in 7.0 mi ESE 8.1 mph - 0.00 in Snow Light Snow
3:01 PM 33.8 °F 27.7 °F 26.6 °F 75% 29.99 in 2.0 mi East 6.9 mph - 0.00 in Snow Light Snow
3:07 PM 33.8 °F 28.6 °F 26.6 °F 75% 29.99 in 1.0 mi SE 5.8 mph - 0.00 in Snow Light Snow
3:16 PM 32.0 °F 25.6 °F 28.4 °F 87% 29.98 in 0.8 mi SE 6.9 mph - 0.00 in Snow Light Snow
3:53 PM 30.9 °F 26.2 °F 28.9 °F 92% 29.99 in 0.5 mi East 4.6 mph - 0.02 in Fog , Snow Snow
4:03 PM 30.2 °F 24.3 °F 28.4 °F 93% 29.96 in 0.5 mi ESE 5.8 mph - 0.01 in Fog , Snow Snow
4:53 PM 30.9 °F 25.2 °F 28.9 °F 92% 29.96 in 0.8 mi East 5.8 mph - 0.07 in Snow Light Snow
5:00 PM 30.2 °F 23.4 °F 28.4 °F 93% 29.93 in 0.8 mi East 6.9 mph - 0.01 in Snow Light Snow
5:11 PM 30.2 °F 25.4 °F 28.4 °F 93% 29.93 in 0.5 mi East 4.6 mph - 0.03 in Fog , Snow Snow
5:42 PM 30.2 °F 25.4 °F 28.4 °F 93% 29.94 in 0.8 mi East 4.6 mph - 0.08 in Snow Light Snow
5:53 PM 30.9 °F 27.5 °F 30.0 °F 96% 29.96 in 0.8 mi East 3.5 mph - 0.09 in Snow Light Snow
6:02 PM 30.2 °F 26.7 °F 28.4 °F 93% 29.93 in 1.0 mi East 3.5 mph - 0.01 in Snow Light Snow
6:15 PM 30.2 °F 26.7 °F 28.4 °F 93% 29.93 in 1.0 mi East 3.5 mph - 0.02 in Snow Light Snow
6:41 PM 30.2 °F 24.3 °F 28.4 °F 93% 29.93 in 1.0 mi East 5.8 mph - 0.04 in Snow Light Snow
6:53 PM 30.9 °F 26.2 °F 28.9 °F 92% 29.95 in 1.0 mi ESE 4.6 mph - 0.05 in Snow Light Snow
7:01 PM 30.2 °F 26.7 °F 28.4 °F 93% 29.92 in 1.2 mi ESE 3.5 mph - 0.00 in Snow Light Snow
7:22 PM 30.2 °F 26.7 °F 30.2 °F 100% 29.93 in 2.0 mi ESE 3.5 mph - 0.00 in Snow Light Snow
7:37 PM 30.2 °F - 30.2 °F 100% 29.92 in 1.8 mi Calm Calm - 0.00 in Snow Light Snow
7:53 PM 30.9 °F 27.5 °F 30.0 °F 96% 29.94 in 1.5 mi East 3.5 mph - 0.01 in Snow Light Snow
8:10 PM 30.2 °F 26.7 °F 28.4 °F 93% 29.91 in 1.8 mi East 3.5 mph - 0.00 in Snow Light Snow
8:22 PM 30.2 °F - 30.2 °F 100% 29.91 in 2.0 mi Calm Calm - 0.00 in Snow Light Snow
8:49 PM 30.2 °F - 30.2 °F 100% 29.91 in 1.8 mi Calm Calm - 0.01 in Snow Light Snow
8:53 PM 30.9 °F - 30.0 °F 96% 29.93 in 1.5 mi Calm Calm - 0.01 in Snow Light Snow
9:02 PM 30.2 °F - 30.2 °F 100% 29.91 in 2.5 mi Calm Calm - 0.00 in   Overcast
9:14 PM 30.2 °F - 30.2 °F 100% 29.91 in 2.0 mi Calm Calm - 0.00 in   Overcast
9:24 PM 32.0 °F - 30.2 °F 93% 29.90 in 1.8 mi Calm Calm - 0.00 in   Overcast
9:53 PM 32.0 °F - 30.0 °F 92% 29.93 in 1.5 mi Calm Calm - 0.00 in   Overcast
10:02 PM 32.0 °F - 30.2 °F 93% 29.91 in 1.8 mi Calm Calm - 0.00 in   Overcast
10:53 PM 32.0 °F - 30.0 °F 92% 29.92 in 1.2 mi Calm Calm - 0.01 in   Overcast
11:20 PM 30.2 °F - 30.2 °F 100% 29.90 in 1.0 mi Calm Calm - N/A   Overcast
11:53 PM 30.9 °F - 30.0 °F 96% 29.92 in 0.8 mi Calm Calm - N/A   Overcast